Weather History for Bangkok (Suvarnabhumi), Thailand

Change the Weather History Date:

Monday, January 7, 2013

  Actual Average (VTBD) Record (VTBD)
Temperature  
Mean Temperature 82 °F -  
Max Temperature 93 °F 90 °F 95 °F (2013)
Min Temperature 71 °F 70 °F 68 °F (1999)
Cooling Degree Days 17    
Growing Degree Days 32 (Base 50)    
Moisture  
Dew Point 63 °F    
Average Humidity 53    
Maximum Humidity 78    
Minimum Humidity 29    
Precipitation  
Precipitation 0.00 in 0.02 in - ()
Sea Level Pressure  
Sea Level Pressure 29.86 in    
Wind  
Wind Speed 4 mph ()    
Max Wind Speed 10 mph    
Max Gust Speed 21 mph    
Visibility 6.0 miles    
Events      
Averages and records for this station are not official NWS values.
T = Trace of Precipitation, MM = Missing Value Source: Averaged Metar Reports

Daily Weather History Graph

Daily Weather History Graph

Search for Another Location

Airport:

Trip Planner

Search our weather history database for the weather conditions in past years. The results will help you decide how hot, cold, wet, or windy it might be!

Date:

Astronomy

Jan. 07, 2013 Rise Set
Actual Time 6:40 AM ICT 6:03 PM ICT
Civil Twilight 6:18 AM ICT 6:26 PM ICT
Nautical Twilight 5:51 AM ICT 6:53 PM ICT
Astronomical Twilight 5:25 AM ICT 7:19 PM ICT
Moon 1:44 AM ICT (1/7) 1:38 PM ICT (1/7)
Length of Visible Light 12h 08m
Length of Day
11h 22m
Waning Crescent, 28% of the Moon is Illuminated
Jan 7
Waning Crescent
Jan 12
New
Jan 19
First Quarter
Jan 27
Full
Feb 3
Last Quarter

Hourly Weather History & Observations

Time (ICT) Temp. Heat Index Dew Point Humidity Pressure Visibility Wind Dir Wind Speed Gust Speed Precip Events Conditions
12:00 AM 78.8 °F - 60.8 °F 54% 29.86 in 6.2 mi NW 8.1 mph - N/A   Mostly Cloudy
12:30 AM 78.8 °F - 60.8 °F 54% 29.86 in 6.2 mi NW 9.2 mph - N/A   Mostly Cloudy
1:00 AM 78 °F - 67 °F 60% 29.85 in 5 mi Calm Calm - -   Mist
1:00 AM 78.8 °F - 60.8 °F 54% 29.86 in 6.2 mi NNW 8.1 mph - N/A   Mostly Cloudy
1:30 AM 77.0 °F - 60.8 °F 57% 29.86 in 6.2 mi NNW 4.6 mph - N/A   Mostly Cloudy
2:00 AM 75.2 °F - 60.8 °F 61% 29.83 in 6.2 mi Calm Calm - N/A   Mostly Cloudy
2:30 AM 75.2 °F - 60.8 °F 61% 29.83 in 6.2 mi Calm Calm - N/A   Mostly Cloudy
3:00 AM 73.4 °F - 60.8 °F 65% 29.83 in 6.2 mi North 3.5 mph - N/A   Mostly Cloudy
3:30 AM 73.4 °F - 62.6 °F 69% 29.83 in 6.2 mi NE 3.5 mph - N/A   Mostly Cloudy
4:00 AM 73.4 °F - 64.4 °F 73% 29.83 in 6.2 mi NNE 3.5 mph - N/A   Mostly Cloudy
4:30 AM 71.6 °F - 64.4 °F 78% 29.83 in 6.2 mi Calm Calm - N/A   Mostly Cloudy
5:00 AM 73.4 °F - 62.6 °F 69% 29.86 in 6.2 mi NNW 2.3 mph - N/A   Mostly Cloudy
5:30 AM 73.4 °F - 62.6 °F 69% 29.86 in 6.2 mi NW 5.8 mph - N/A   Mostly Cloudy
6:00 AM 73.4 °F - 62.6 °F 69% 29.86 in 6.2 mi NNW 3.5 mph - N/A   Mostly Cloudy
6:30 AM 73.4 °F - 62.6 °F 69% 29.86 in 6.2 mi Calm Calm - N/A   Mostly Cloudy
7:00 AM 74 °F - 63 °F 61% 29.86 in 5 mi Calm Calm - -   Mist
7:00 AM 71.6 °F - 62.6 °F 73% 29.89 in 6.2 mi NNW 2.3 mph - N/A   Mostly Cloudy
7:30 AM 75.2 °F - 64.4 °F 69% 29.89 in 6.2 mi NNW 4.6 mph - N/A   Mostly Cloudy
8:00 AM 75.2 °F - 62.6 °F 65% 29.92 in 6.2 mi North 3.5 mph - N/A   Mostly Cloudy
8:30 AM 77.0 °F - 62.6 °F 61% 29.92 in 5.6 mi North 5.8 mph - N/A   Mostly Cloudy
9:00 AM 78.8 °F - 62.6 °F 57% 29.92 in 6.2 mi NNE 4.6 mph - N/A   Mostly Cloudy
9:30 AM 80.6 °F 81.5 °F 60.8 °F 51% 29.92 in 6.2 mi ENE 4.6 mph - N/A   Mostly Cloudy
10:00 AM 82.4 °F 83.4 °F 62.6 °F 51% 29.92 in 5.6 mi ENE 6.9 mph - N/A   Mostly Cloudy
10:30 AM 82.4 °F 83.4 °F 62.6 °F 51% 29.92 in 5.6 mi ENE 8.1 mph - N/A   Unknown
11:00 AM 84.2 °F 85.0 °F 62.6 °F 48% 29.92 in - ENE 10.4 mph - N/A   Clear
11:30 AM 86.0 °F 86.6 °F 62.6 °F 45% 29.89 in - ENE 6.9 mph - N/A   Clear
12:00 PM 87.8 °F 88.5 °F 62.6 °F 43% 29.89 in - East 9.2 mph 20.7 mph N/A   Clear
12:30 PM 89.6 °F 90.1 °F 62.6 °F 40% 29.86 in - East 8.1 mph 19.6 mph N/A   Clear
1:00 PM 93 °F - 65 °F 29% 29.82 in 5 mi NE 3.5 mph - -   Haze
1:00 PM 89.6 °F 90.1 °F 62.6 °F 40% 29.86 in - East 8.1 mph 19.6 mph N/A   Clear
1:30 PM 89.6 °F 89.5 °F 60.8 °F 38% 29.83 in - East 5.8 mph 17.3 mph N/A   Clear
2:00 PM 89.6 °F 89.5 °F 60.8 °F 38% 29.83 in 6.2 mi East 4.6 mph - N/A   Mostly Cloudy
2:30 PM 91.4 °F 91.4 °F 60.8 °F 36% 29.83 in 6.2 mi SE 4.6 mph - N/A   Mostly Cloudy
3:00 PM 91.4 °F 91.4 °F 60.8 °F 36% 29.80 in 6.2 mi East 4.6 mph - N/A   Mostly Cloudy
3:30 PM 91.4 °F 91.4 °F 60.8 °F 36% 29.80 in 6.2 mi East 4.6 mph - N/A   Mostly Cloudy
4:00 PM 91.4 °F 91.4 °F 60.8 °F 36% 29.80 in 6.2 mi East 4.6 mph - N/A   Mostly Cloudy
4:30 PM 89.6 °F 90.1 °F 62.6 °F 40% 29.80 in 6.2 mi East 4.6 mph - N/A   Mostly Cloudy
5:00 PM 89.6 °F 90.1 °F 62.6 °F 40% 29.80 in 6.2 mi East 4.6 mph - N/A   Mostly Cloudy
5:30 PM 87.8 °F 88.5 °F 62.6 °F 43% 29.83 in 6.2 mi NE 3.5 mph - N/A   Mostly Cloudy
6:00 PM 86.0 °F 86.6 °F 62.6 °F 45% 29.83 in 5.6 mi North 3.5 mph - N/A   Mostly Cloudy
6:30 PM 84.2 °F 85.6 °F 64.4 °F 51% 29.83 in 5.6 mi NNW 5.8 mph - N/A   Mostly Cloudy
7:00 PM 84 °F - 75 °F 68% 29.83 in 5 mi Calm Calm - -   Mist
7:00 PM 84.2 °F 85.6 °F 64.4 °F 51% 29.86 in 5.6 mi NW 6.9 mph - N/A   Mostly Cloudy
7:30 PM 84.2 °F 85.6 °F 64.4 °F 51% 29.86 in 5.6 mi NW 8.1 mph - N/A   Mostly Cloudy
8:00 PM 84.2 °F 85.6 °F 64.4 °F 51% 29.86 in 5.6 mi NW 6.9 mph - N/A   Mostly Cloudy
8:30 PM 82.4 °F 83.4 °F 62.6 °F 51% 29.89 in 6.2 mi NW 6.9 mph - N/A   Mostly Cloudy
9:00 PM 82.4 °F 83.9 °F 64.4 °F 54% 29.89 in 6.2 mi NW 6.9 mph - N/A   Mostly Cloudy
9:30 PM 82.4 °F 83.4 °F 62.6 °F 51% 29.89 in 6.2 mi NNW 6.9 mph - N/A   Mostly Cloudy
10:00 PM 82.4 °F 83.9 °F 64.4 °F 54% 29.89 in 6.2 mi NW 4.6 mph - N/A   Scattered Clouds
10:30 PM 82.4 °F 83.4 °F 62.6 °F 51% 29.86 in 6.2 mi NW 5.8 mph - N/A   Scattered Clouds
11:00 PM 82.4 °F 83.9 °F 64.4 °F 54% 29.86 in - NW 5.8 mph - N/A   Clear
11:30 PM 82.4 °F 83.9 °F 64.4 °F 54% 29.86 in - NW 4.6 mph - N/A   Clear